Location: Ciula Mare
(45.6000°N, 22.8167°E)
Time: 10:29:17
(UTC+00:00)

Tiangong - Visible Passes

Search period start: 28 May 2023 00:00
Search period end: 07 June 2023 00:00
Orbit: 377 x 392 km, 41.5° (Epoch: 27 May)

Date Brightness Start Highest point End Pass type
(mag) Time Alt. Az. Time Alt. Az. Time Alt. Az.
02 Jun 0.3 01:27:10 10° S 01:28:21 12° SSE 01:29:31 10° SE visible
03 Jun -0.6 02:02:17 10° SW 02:04:55 24° SSE 02:07:33 10° ESE visible
04 Jun -0.3 01:04:40 16° S 01:05:15 17° SSE 01:07:26 10° ESE visible
05 Jun -1.1 01:39:31 14° SW 01:41:49 30° SSE 01:44:41 10° ESE visible
06 Jun -0.7 00:42:08 23° SSE 00:42:08 23° SSE 00:44:39 10° ESE visible
